ZSJRH FAPE-FAGG

Flight info

Callsign ZSJRH
Flight time 0h 44m
Altitude 1600
Route FAPE DCT GPS FAGG
Aircraft PC12/L-SDFGRWY/S

Departure

Time 2026-04-15 16:55
Airport Chief Dawid Stuurman International Airport (FAPE)

Arrival

Time 2026-04-15 17:39
Airport George Airport (FAGG)
Time Latitude Longitude Altitude Speed Heading
2026-04-15 16:55 -33.97641 25.54215 5839 ft 115 kts 253°
2026-04-15 16:55 -33.98087 25.53374 6379 ft 123 kts 238°
2026-04-15 16:55 -33.98543 25.52505 6949 ft 121 kts 253°
2026-04-15 16:56 -33.98714 25.51870 7344 ft 119 kts 261°
2026-04-15 16:56 -33.98914 25.50560 8139 ft 119 kts 265°
2026-04-15 16:56 -33.98976 25.49904 8539 ft 119 kts 267°
2026-04-15 16:56 -33.99051 25.48564 9375 ft 119 kts 269°
2026-04-15 16:57 -33.99069 25.47902 9807 ft 119 kts 270°
2026-04-15 16:57 -33.99086 25.46591 10577 ft 118 kts 271°
2026-04-15 16:57 -33.99089 25.45921 10963 ft 119 kts 271°
2026-04-15 16:57 -33.99091 25.44599 11709 ft 119 kts 272°
2026-04-15 16:58 -33.99093 25.43593 12256 ft 121 kts 272°
2026-04-15 16:58 -33.99095 25.42556 12792 ft 125 kts 272°
2026-04-15 16:58 -33.99098 25.41857 13160 ft 127 kts 272°
2026-04-15 16:58 -33.99103 25.40427 13908 ft 129 kts 272°
2026-04-15 16:59 -33.99107 25.39711 14238 ft 129 kts 273°
2026-04-15 16:59 -33.99113 25.38278 14915 ft 129 kts 273°
2026-04-15 16:59 -33.99115 25.37543 15256 ft 129 kts 273°
2026-04-15 16:59 -33.99121 25.36113 15921 ft 129 kts 274°
2026-04-15 17:00 -33.99122 25.34947 16088 ft 153 kts 274°
2026-04-15 17:00 -33.99117 25.33547 16133 ft 179 kts 273°
2026-04-15 17:00 -33.99118 25.32510 16161 ft 194 kts 272°
2026-04-15 17:00 -33.99130 25.30197 16190 ft 217 kts 272°
2026-04-15 17:01 -33.99135 25.28969 16187 ft 225 kts 272°
2026-04-15 17:01 -33.99141 25.27041 16173 ft 234 kts 272°
2026-04-15 17:01 -33.99149 25.24393 16156 ft 242 kts 272°
2026-04-15 17:01 -33.99156 25.22342 16145 ft 246 kts 272°
2026-04-15 17:02 -33.99161 25.20944 16139 ft 247 kts 272°
2026-04-15 17:02 -33.99171 25.18183 16132 ft 249 kts 272°
2026-04-15 17:02 -33.99174 25.16799 16130 ft 250 kts 272°
2026-04-15 17:02 -33.99181 25.13983 16126 ft 251 kts 272°
2026-04-15 17:03 -33.99183 25.12593 16123 ft 251 kts 272°
2026-04-15 17:03 -33.99187 25.09797 16123 ft 251 kts 272°
2026-04-15 17:03 -33.99189 25.08378 16122 ft 251 kts 272°
2026-04-15 17:03 -33.99194 25.05584 16122 ft 252 kts 272°
2026-04-15 17:04 -33.99196 25.04154 16123 ft 252 kts 272°
2026-04-15 17:04 -33.99199 25.01357 16128 ft 252 kts 272°
2026-04-15 17:04 -33.99200 24.99964 16127 ft 252 kts 272°
2026-04-15 17:04 -33.99199 24.97140 16127 ft 251 kts 272°
2026-04-15 17:05 -33.99200 24.95751 16128 ft 251 kts 272°
2026-04-15 17:05 -33.99200 24.92939 16125 ft 251 kts 272°
2026-04-15 17:05 -33.99199 24.91548 16126 ft 251 kts 272°
2026-04-15 17:05 -33.99200 24.88736 16125 ft 250 kts 272°
2026-04-15 17:06 -33.99200 24.87350 16124 ft 250 kts 272°
2026-04-15 17:06 -33.99200 24.85253 16125 ft 250 kts 272°
2026-04-15 17:06 -33.99199 24.83157 16125 ft 250 kts 272°
2026-04-15 17:06 -33.99197 24.80382 16127 ft 250 kts 272°
2026-04-15 17:07 -33.99196 24.78988 16125 ft 250 kts 272°
2026-04-15 17:07 -33.99193 24.76185 16127 ft 250 kts 272°
2026-04-15 17:07 -33.99191 24.74791 16128 ft 250 kts 272°
2026-04-15 17:07 -33.99186 24.71990 16123 ft 250 kts 272°
2026-04-15 17:08 -33.99185 24.70602 16118 ft 250 kts 272°
2026-04-15 17:08 -33.99183 24.67802 16115 ft 250 kts 272°
2026-04-15 17:08 -33.99181 24.66415 16120 ft 250 kts 272°
2026-04-15 17:08 -33.99175 24.63615 16127 ft 250 kts 272°
2026-04-15 17:09 -33.99170 24.62227 16128 ft 250 kts 272°
2026-04-15 17:09 -33.98958 24.59452 16125 ft 248 kts 283°
2026-04-15 17:09 -33.98641 24.58128 16125 ft 247 kts 288°
2026-04-15 17:09 -33.98092 24.56162 16126 ft 247 kts 288°
2026-04-15 17:10 -33.97574 24.54215 16127 ft 248 kts 287°
2026-04-15 17:10 -33.96924 24.51551 16129 ft 248 kts 286°
2026-04-15 17:10 -33.96610 24.50197 16128 ft 248 kts 286°
2026-04-15 17:10 -33.96161 24.48217 16131 ft 248 kts 285°
2026-04-15 17:11 -33.95706 24.46209 16135 ft 249 kts 285°
2026-04-15 17:11 -33.95089 24.43521 16135 ft 249 kts 286°
2026-04-15 17:11 -33.94778 24.42192 16136 ft 249 kts 286°
2026-04-15 17:12 -33.93823 24.38190 16143 ft 249 kts 287°
2026-04-15 17:12 -33.93340 24.36188 16117 ft 247 kts 287°
2026-04-15 17:12 -33.92858 24.34205 16114 ft 246 kts 287°
2026-04-15 17:12 -33.92376 24.32230 16117 ft 246 kts 287°
2026-04-15 17:13 -33.91893 24.30258 16111 ft 245 kts 287°
2026-04-15 17:13 -33.91411 24.28289 16116 ft 245 kts 287°
2026-04-15 17:13 -33.90929 24.26318 16120 ft 245 kts 287°
2026-04-15 17:13 -33.90454 24.24373 16129 ft 246 kts 287°
2026-04-15 17:14 -33.89973 24.22400 16125 ft 246 kts 287°
2026-04-15 17:14 -33.89493 24.20426 16126 ft 246 kts 287°
2026-04-15 17:14 -33.89012 24.18448 16137 ft 246 kts 287°
2026-04-15 17:14 -33.88529 24.16465 16141 ft 246 kts 287°
2026-04-15 17:15 -33.88046 24.14489 16139 ft 246 kts 287°
2026-04-15 17:15 -33.87561 24.12511 16120 ft 246 kts 287°
2026-04-15 17:15 -33.87074 24.10531 16130 ft 246 kts 287°
2026-04-15 17:15 -33.86597 24.08590 16122 ft 246 kts 287°
2026-04-15 17:16 -33.86112 24.06619 16130 ft 246 kts 287°
2026-04-15 17:16 -33.85784 24.05282 16132 ft 246 kts 287°
2026-04-15 17:16 -33.85142 24.02670 16138 ft 246 kts 287°
2026-04-15 17:16 -33.84657 24.00699 16138 ft 246 kts 287°
2026-04-15 17:17 -33.84171 23.98728 16141 ft 246 kts 287°
2026-04-15 17:17 -33.83684 23.96752 16132 ft 246 kts 287°
2026-04-15 17:17 -33.83198 23.94782 16126 ft 246 kts 287°
2026-04-15 17:17 -33.82709 23.92803 16131 ft 247 kts 287°
2026-04-15 17:18 -33.82219 23.90824 16138 ft 247 kts 287°
2026-04-15 17:18 -33.81729 23.88843 16141 ft 248 kts 287°
2026-04-15 17:18 -33.81236 23.86846 16135 ft 248 kts 287°
2026-04-15 17:18 -33.80751 23.84882 16140 ft 249 kts 287°
2026-04-15 17:19 -33.80259 23.82890 16133 ft 249 kts 287°
2026-04-15 17:19 -33.79766 23.80898 16128 ft 248 kts 287°
2026-04-15 17:19 -33.79273 23.78907 16126 ft 248 kts 287°
2026-04-15 17:19 -33.78778 23.76920 16128 ft 248 kts 287°
2026-04-15 17:20 -33.78284 23.74928 16143 ft 248 kts 287°
2026-04-15 17:20 -33.77790 23.72943 16139 ft 248 kts 287°
2026-04-15 17:20 -33.77298 23.70961 16141 ft 247 kts 287°
2026-04-15 17:20 -33.76804 23.68980 16135 ft 247 kts 287°
2026-04-15 17:21 -33.76309 23.66992 16144 ft 247 kts 287°
2026-04-15 17:21 -33.75821 23.65039 16148 ft 247 kts 287°
2026-04-15 17:21 -33.75324 23.63054 16140 ft 247 kts 287°
2026-04-15 17:21 -33.74830 23.61078 16138 ft 247 kts 287°
2026-04-15 17:22 -33.74336 23.59099 16137 ft 247 kts 287°
2026-04-15 17:22 -33.73842 23.57119 16138 ft 247 kts 287°
2026-04-15 17:22 -33.73348 23.55139 16135 ft 247 kts 287°
2026-04-15 17:22 -33.72853 23.53166 16139 ft 247 kts 287°
2026-04-15 17:23 -33.72357 23.51188 16147 ft 247 kts 287°
2026-04-15 17:23 -33.71862 23.49213 16141 ft 247 kts 287°
2026-04-15 17:23 -33.71367 23.47238 16144 ft 247 kts 287°
2026-04-15 17:23 -33.70869 23.45262 16143 ft 247 kts 287°
2026-04-15 17:24 -33.70376 23.43305 16146 ft 248 kts 287°
2026-04-15 17:24 -33.69871 23.41299 16156 ft 248 kts 287°
2026-04-15 17:24 -33.69378 23.39347 16110 ft 248 kts 287°
2026-04-15 17:24 -33.68871 23.37345 15860 ft 252 kts 287°
2026-04-15 17:25 -33.68360 23.35323 15630 ft 254 kts 287°
2026-04-15 17:25 -33.67846 23.33290 15402 ft 255 kts 287°
2026-04-15 17:25 -33.67334 23.31260 15177 ft 251 kts 287°
2026-04-15 17:25 -33.66977 23.29244 14926 ft 246 kts 273°
2026-04-15 17:26 -33.67389 23.27246 14689 ft 252 kts 248°
2026-04-15 17:26 -33.68242 23.25408 14457 ft 252 kts 246°
2026-04-15 17:26 -33.69030 23.23513 14224 ft 255 kts 249°
2026-04-15 17:26 -33.69748 23.21558 14000 ft 255 kts 251°
2026-04-15 17:27 -33.70424 23.19621 13748 ft 253 kts 251°
2026-04-15 17:27 -33.71099 23.17672 13495 ft 251 kts 251°
2026-04-15 17:27 -33.71780 23.15736 13247 ft 251 kts 251°
2026-04-15 17:27 -33.72468 23.13805 12987 ft 251 kts 251°
2026-04-15 17:28 -33.73164 23.11884 12727 ft 251 kts 250°
2026-04-15 17:28 -33.73859 23.09989 12484 ft 251 kts 250°
2026-04-15 17:28 -33.74570 23.08072 12245 ft 250 kts 250°
2026-04-15 17:28 -33.75279 23.06170 12009 ft 249 kts 249°
2026-04-15 17:29 -33.75987 23.04280 11766 ft 248 kts 249°
2026-04-15 17:29 -33.76692 23.02396 11515 ft 247 kts 249°
2026-04-15 17:29 -33.77394 23.00513 11269 ft 246 kts 249°
2026-04-15 17:29 -33.78091 22.98637 11037 ft 246 kts 249°
2026-04-15 17:30 -33.78786 22.96764 10807 ft 245 kts 249°
2026-04-15 17:30 -33.79478 22.94898 10583 ft 244 kts 249°
2026-04-15 17:30 -33.80169 22.93037 10344 ft 243 kts 248°
2026-04-15 17:30 -33.80854 22.91201 10124 ft 243 kts 248°
2026-04-15 17:31 -33.81544 22.89347 9874 ft 243 kts 248°
2026-04-15 17:31 -33.82233 22.87497 9594 ft 242 kts 248°
2026-04-15 17:31 -33.82922 22.85653 9309 ft 242 kts 248°
2026-04-15 17:31 -33.83615 22.83837 8874 ft 238 kts 245°
2026-04-15 17:32 -33.84648 22.82278 8208 ft 243 kts 227°
2026-04-15 17:32 -33.85890 22.80945 7963 ft 237 kts 225°
2026-04-15 17:32 -33.87126 22.79621 7715 ft 237 kts 226°
2026-04-15 17:32 -33.88360 22.78274 7459 ft 242 kts 226°
2026-04-15 17:33 -33.89606 22.76902 7214 ft 244 kts 227°
2026-04-15 17:33 -33.90854 22.75528 6960 ft 241 kts 226°
2026-04-15 17:33 -33.92082 22.74174 6718 ft 238 kts 227°
2026-04-15 17:33 -33.93284 22.72846 6481 ft 237 kts 227°
2026-04-15 17:34 -33.94495 22.71503 6225 ft 236 kts 226°
2026-04-15 17:34 -33.95707 22.70156 5971 ft 236 kts 226°
2026-04-15 17:34 -33.96912 22.68816 5724 ft 236 kts 226°
2026-04-15 17:34 -33.98107 22.67471 5474 ft 234 kts 227°
2026-04-15 17:35 -33.99036 22.65897 5211 ft 231 kts 248°
2026-04-15 17:35 -33.99495 22.64037 4900 ft 233 kts 259°
2026-04-15 17:35 -33.99738 22.62099 4568 ft 235 kts 264°
2026-04-15 17:35 -33.99857 22.60129 4230 ft 236 kts 268°
2026-04-15 17:36 -33.99904 22.58148 3892 ft 237 kts 269°
2026-04-15 17:36 -33.99937 22.56192 3567 ft 235 kts 268°
2026-04-15 17:36 -33.99996 22.54250 3243 ft 226 kts 266°
2026-04-15 17:36 -34.00074 22.52367 2925 ft 224 kts 266°
2026-04-15 17:37 -34.00155 22.50501 2615 ft 218 kts 266°
2026-04-15 17:37 -34.00217 22.48724 2319 ft 206 kts 266°
2026-04-15 17:37 -34.00265 22.47025 2039 ft 200 kts 267°
2026-04-15 17:37 -34.00310 22.45362 1766 ft 197 kts 266°
2026-04-15 17:38 -34.00349 22.43870 1497 ft 149 kts 265°
2026-04-15 17:38 -34.00380 22.42816 1347 ft 111 kts 264°
2026-04-15 17:38 -34.00422 22.41884 1207 ft 111 kts 263°
2026-04-15 17:38 -34.00465 22.40954 1058 ft 113 kts 264°
2026-04-15 17:39 -34.00499 22.40014 956 ft 112 kts 266°
2026-04-15 17:39 -34.00514 22.39139 775 ft 97 kts 266°
2026-04-15 17:39 -34.00536 22.38390 650 ft 77 kts 267°
2026-04-15 17:39 -34.00551 22.37989 652 ft 23 kts 266°
2026-04-15 17:40 -34.00446 22.37887 655 ft 28 kts
2026-04-15 17:40 -34.00343 22.37818 652 ft 21 kts 268°
2026-04-15 17:40 -34.00286 22.37679 652 ft 24 kts 359°
2026-04-15 17:40 -34.00099 22.37673 652 ft 12 kts 327°
2026-04-15 17:41 -34.00092 22.37627 652 ft 0 kts 271°